Weather in Repyevo

Russia / Novosibirsk Oblast     55°03′50″N   83°27′58″E
temp.,
°C
wind,
m/s
gust,
m/s
humid.,
%
clouds,
%
prec.,
mm/h
press.,
hPa
HPBL,
m
28 february, sun
sun2801:00−29ssw34100100 0.1 103965
04:00−30ssw339859 0.0 103940
07:00−30s339748 0.0 103943
10:00−26s369660 0.0 1038179
13:00−20sse479165 0.0 1035332
16:00−16sse488991 0.0 1032490
19:00−16sse369695 0.1 1029165
22:00−15sse4894100 0.3 1026264
1 march, mon
mon101:00−12sse4994100 0.5 1023306
04:00−11sse4994100 0.3 1019333
07:00−9sse51095100 1.3 1016458
10:00−7sse51094100 1.4 1013588
13:00−4sse5995100 3.1 1010587
16:000sw71399100 4.6 1008762
19:000sw81498100 8.6 1008772
22:00−2w31198100 3.2 1007744
2 march, tue
tue201:00−10nne3596100 6.1 1008167
04:00−12n3596100 0.4 1011143
07:00−14nne229699 0.8 101467
10:00−14nne129591 0.2 1016121
13:00−11wnw228996 0.4 1018388
16:00−10wsw3390100 0.1 1018493
19:00−13sw229699 0.3 101826
22:00−15s129599 0.0 101820
3 march, wed
wed301:00−15sse1196100 0.1 101720
04:00−15sse1196100 0.1 101620
07:00−14ese1196100 0.4 101620
10:00−12e1194100 0.3 1015123
13:00−9wsw1190100 0.6 1016322
16:00−9wsw3492100 0.3 1017438
19:00−12wsw359698 0.5 1020144
22:00−14sw359884 0.1 102285
4 march, thu
thu401:00−16ssw379786 0.1 1024160
04:00−18ssw339997 0.1 102540
07:00−21s349896 0.1 102774
10:00−17s489487 0.0 1026258
13:00−12s589183 0.0 1025363
16:00−8s599096 0.0 1023549
19:00−8sse4109298 0.1 1022432
22:00−10sse51193100 0.0 1020273